Regional Weather Roundup
Issued by NWS Wakefield, VA

Home | Current Version | Previous Version | Graphics & Text | Print | Product List | Glossary On
Versions: 1 2 3 4 5 6 7 8 9 10 11 12 13 14 15 16 17 18 19 20 21 22 23 24 25 26 27 28 29 30 31 32 33 34 35 36 37 38 39 40 41 42 43 44 45 46 47 48 49 50
000
ASUS41 KAKQ 041815
RWRAKQ

REGIONAL WEATHER ROUNDUP
NATIONAL WEATHER SERVICE WAKEFIELD VA
200 PM EDT TUE AUG 04 2015

Note: "fair" indicates few or no clouds below 12,000 feet with no
significant weather and/or obstructions to visibility. * = Denotes
station may not report precipitation (e.g., rain,snow,etc.),
thunder or fog.

VAZ042-051-052>054-056-041900-
NORTHERN VIRGINIA

CITY           SKY/WX    TMP DP  RH WIND       PRES   REMARKS
WASH NATIONAL  MOSUNNY   93  63  36 W8G21     29.91F
DULLES         PTSUNNY   87  64  46 W5        29.92F
FORT BELVOIR   MOSUNNY   91  65  41 NW7       29.92S
QUANTICO       MOSUNNY   93  64  38 NW8       29.92F
FREDERICKSBRG* SUNNY     93  67  42 SW6       29.91F HX  96
STAFFORD*      SUNNY     92  61  35 W6        29.97S
WARRENTON      MOSUNNY   92  67  44 SW7       29.93F HX  95
CULPEPER*      MOSUNNY   86  65  49 SW6       29.94F
MANASSAS*      MOSUNNY   90  64  43 W7        29.93S
LEESBURG*      PTSUNNY   88  68  51 CALM      29.93F
WINCHESTER     MOSUNNY   90  63  40 W9        29.94F
FRONT ROYAL*   FAIR      86  64  48 SW6       29.93F
LURAY*         FAIR      91  63  38 SW9       29.95F
$$

VAZ048-049-060>072-079>083-041900-
CENTRAL AND SOUTH CENTRAL VIRGINIA

CITY           SKY/WX    TMP DP  RH WIND       PRES   REMARKS
RICHMOND       MOSUNNY   94  72  48 SW15      29.93F HX 102
CHESTERFIELD*  FAIR      93  66  40 SW10      29.95F HX  96
PETERSBURG*    MOSUNNY   92  77  61 SW9       29.95S HX 106
HANOVER        MOSUNNY   92  70  48 SW10G18   29.95F HX  97
TAPPAHANNOCK*  SUNNY     90  67  46 S8        29.94S
QUINTON*       FAIR      91  74  56 SW6       29.93F HX 100
CHARLOTTSVILLE SUNNY     89  63  41 SW6       29.95F
GORDONSVILLE*  FAIR      88  66  48 W3        29.94F
ORANGE*        MOSUNNY   90  66  45 CALM      29.96S
LOUISA*        MOSUNNY   93  64  38 SW8       29.94S HX  95
BUMPASS*       FAIR      91  66  42 SW9       29.94F
FARMVILLE*     MOSUNNY   93  67  41 S8G17     29.93F HX  97
CREWE*         FAIR     N/A N/A N/A W10       29.96S
FORT PICKETT*  FAIR      92  70  47 SW9G22    29.96F HX  97
CHASE CITY*    FAIR      92  73  54 SW5       29.97F HX 101
CLARKSVILLE*   FAIR      90  72  55 SW10      29.97S HX  96
SOUTH HILL*    SUNNY     90  72  55 SW3       30.02F HX  97
LAWRENCEVILLE* MOCLDY    93  73  52 S9        29.96F HX 102
EMPORIA*       MOSUNNY   90  72  55 S5        29.97S HX  96
$$

VAZ088>098-041900-
SOUTHEAST VIRGINIA

CITY           SKY/WX    TMP DP  RH WIND       PRES   REMARKS
NORFOLK        MOSUNNY   93  71  48 SW18G24   29.94F HX 100
VIRGINIA BEACH MOSUNNY   94  71  47 SW17      29.95S HX 101
NORFOLK NAVAL  PTSUNNY   92  72  51 SW14      29.95F HX  99
WEST POINT*    SUNNY     93  68  44 SW9       29.94F HX  98
SALUDA*        FAIR      90  74  60 SW6       29.93F HX  99
NEWPORT NEWS   SUNNY     92  73  53 SW14G22   29.94F HX 100
LANGLEY AFB    MOSUNNY   90  75  62 S14       29.94S HX 100
FORT EUSTIS    SUNNY     92  71  50 SW14      29.92F HX  98
WILLIAMSBURG*  SUNNY     95  75  52 W8        29.95S HX 107
HR EXEC AP*    FAIR      93  73  52 SW12G22   29.97S HX 102
FRANKLIN*      MOSUNNY   94  71  47 S13G20    29.95F HX 100
WAKEFIELD      MOSUNNY   91  72  53 S8G20     29.95F HX  98
$$

VAZ020-022-025-037-045-041900-
WEST CENTRAL AND SOUTHWEST VIRGINIA

CITY           SKY/WX    TMP DP  RH WIND       PRES   REMARKS
STAUNTON*      PTSUNNY   90  62  38 S6        30.00F
WAYNESBORO*    FAIR      85  65  51 W8        30.01S
HOT SPRINGS VA PTSUNNY   78  63  60 W9G18     30.13F
LYNCHBURG      MOSUNNY   89  66  46 SW9       29.99F
DANVILLE       SUNNY     91  71  51 VRB5      29.97F HX  97
SOUTH BOSTON*  FAIR      90  72  55 S5        29.96F HX  97
MARTINSVILLE   SUNNY     94  60  31 NW5       30.01F
ROANOKE        MOSUNNY   90  64  42 W6        30.00F
BLACKSBURG     CLOUDY    85  67  54 SW7       30.08F
DUBLIN*          N/A     85  66  51 NW6       30.08S
MARION*        PTSUNNY   82  67  60 W9        30.13S
HILLSVILLE*    MOSUNNY   83  64  52 W8        30.10S
RICHLANDS*     MOCLDY    81  66  61 W6        30.12S
WISE*          PTSUNNY   86  59  39 W9        30.13F
ABINGDON*      MOSUNNY   87  65  47 W10       30.09F
$$

MDZ021>025-VAZ099-100-041900-
SOUTHERN MARYLAND AND THE DELMARVA PENINSULA

CITY           SKY/WX    TMP DP  RH WIND       PRES   REMARKS
PATUXENT RIVER MOSUNNY   91  69  48 SW10      29.91F HX  96
BAY BRIDGE APT   N/A     90  63  40 SW6       29.91S
LEONARDTOWN    SUNNY     90  64  43 SW8       29.94S
DOVER          SUNNY     90  71  53 W12       29.89S HX  95
GEORGETOWN     MOSUNNY   90  68  48 W12G17    29.91S
EASTON         MOSUNNY   90  72  55 W8        29.95S HX  96
CAMBRIDGE      SUNNY     90  68  48 W6        29.91S
SALISBURY      SUNNY     90  70  51 W14       29.91F HX  95
OCEAN CITY     SUNNY     93  68  43 SW15      29.91S HX  97
WALLOPS ISLAND MOSUNNY   90  74  59 W14G24    29.93F HX  99
ACCOMACK*      MOSUNNY   90  81  74 W12G18    29.93F HX 108
$$

NCZ012>017-030>032-041900-
NORTH CENTRAL AND EASTERN NORTH CAROLINA

CITY           SKY/WX    TMP DP  RH WIND       PRES   REMARKS
ROANOKE RAPIDS FAIR      91  72  52 S14G20    29.96S HX  98
RALEIGH        MOSUNNY   91  70  49 SE8       29.97F HX  96
ELIZABETH CITY PTSUNNY   83  76  79 S13       30.00S
AHOSKIE*       SUNNY    N/A N/A N/A S14G22    29.98S
EDENTON*         N/A     80  72  77 SW10      30.01S
CURRITUCK*     PTSUNNY  N/A N/A N/A SW14G29   30.01R
KILL DEVIL HLS RAIN      75  70  84 W6        30.01S
MANTEO         DRIZZLE   76  71  84 W12       30.03S
CAPE HATTERAS  CLOUDY    82  75  79 SW8       30.02F
TARBORO*         N/A     89  73  59 SE9G18    29.99S HX  96
GOLDSBORO      MOSUNNY   90  74  59 SE13G18   29.95F HX  99
WASHINGTON     PTSUNNY   83  75  77 S6        30.00F
GREENVILLE     PTSUNNY   82  77  83 S5        30.01F
NEW BERN       PTSUNNY   85  72  65 S14G24    30.01F
WILMINGTON     CLOUDY    77  71  82 SE8       29.98S
$$

VAZ048-041900-
ELSEWHERE

CITY           SKY/WX    TMP DP  RH WIND       PRES   REMARKS
HARRISBURG PA  MOSUNNY   87  54  32 W18G24    29.90S
BALTIMORE      MOSUNNY   88  65  46 W14G20    29.91S
ANNAPOLIS      PTSUNNY   89  65  44 W6        29.90F
ANDREWS AFB    MOSUNNY   90  67  46 SW10      29.92S
PHILADELPHIA   MOSUNNY   90  61  37 W18G24    29.89S
HENDERSON NC   PTSUNNY   90  66  45 SW7       29.97F
GREENSBORO     PTSUNNY   91  66  43 W7        29.99F
ROCKY MOUNT    PTSUNNY   90  72  55 S15G22    29.97F HX  97
$$

VAZ100-041900-
MARINE

STATION/POSITION TIME  TEMP    WIND        PRES    WAVE   SWELL
                       AIR SEA DIR/SP/G            HT/PER HT/PER
                 (UTC) (F)     (DEG/KT/KT) (MB)    (FT/S) (FT/S)
BRANDYWINE LGT   1700   83 76  290/ 11/ 12 1012.7F
CAPE MAY NJ      1700   80 77  240/  7/  8 1012.3S
LEWES DE         1700   88 73  260/ 13/ 16 1012.4F
15NM E FENWICK I 1750   79 79  200/ 16/ 17 1012.8S   5/ 8   3/ 8
OCEAN-CITY-INLET 1700   86 73  280/ 12/ 14 1012.1F
WACHAPREAGUE VA  1700   88 83  250/  8/ 18 1014.0F
GOOSES REEF MD   1800   87 84  270/ 10/ 12 1014.0F
COVE POINT MD    1700   86     290/  6/ 11 1013.7F
SOLOMONS ISLAND  1700      83                N/A
BISHOPS HEAD MD  1700   83 85  230/  9/ 11 1012.6F
PINEY POINT MD   1700          340/  5/  6   N/A
POTOMAC MD       1800   87 84  280/ 10/ 14 1012.0F   1/ 2
CAMBRIDGE MD     1700   85 84  290/  7/  9 1012.2F
LEWISETTA VA     1700   87 85  270/ 11/ 13 1013.0F
RAPPAHANNOCK LGT 1700          220/ 14/ 15 1014.3F
STINGRAY PT      1800   88 83  250/ 12/ 14 1013.5F   1/ 2
YORK RVR RNG VA  1700   86     240/ 18/ 21 1013.3F
YORKTOWN VA      1700   87 84  250/ 12/ 16 1013.6F
JAMESTOWN VA     1800   88 86  230/ 12/ 14   N/A
DOMINION TERM VA 1700   87     250/ 12/ 15 1014.1F
KIPTOPEKE VA     1700      82  260/ 12/ 15   N/A
CHES BAY BRIDGE  1700   86 79  200/ 12/ 18 1013.7F
CAPE HENRY VA    1700   90     210/  9/ 18   N/A
CHESAPEAKE LGHT  1700   81     210/ 15/ 15 1015.1F
WILLOUBY STN VA  1700   86     250/ 11/ 12 1015.1F
CAPE HENRY BUOY  1728      78                N/A     3/ 5
1ST LANDING BUOY 1800      81              1013.7F   2/ 3
CAPE CHARLES BUO 1726      75                N/A     3/11   2/11
OFFSHORE WE BUOY 1741      82                N/A     4/ 5   2/11
64NM E OF VA BCH 1750   82 81  210/ 19/ 25 1015.0F   5/ 5   2/11
DUCK PIER NC     1700   84 63  220/ 16/ 21 1015.1F
44100 DUCK FRF   1754      79                N/A     3/ 6
44056 DUCK FRF   1711      69                N/A     2/11   2/11
OREGON INLET NC  1700   81 81  190/ 21/ 27 1016.5F
HATTERAS NC      1700   82 79  190/  5/ 10 1016.6F
DIAMOND SHLS NC  1750   82 84  200/ 17/ 21 1016.5F   4/ 6   2/ 7
CAPE LOOKOUT NC  1800   83     190/ 13/ 15 1016.1F
$$



USA.gov is the U.S. government's official web portal to all federal, state and local government web resources and services.